QPF
0.01 0.01 0.00 0.00 0.00 0.00 0.00 0.00 0.00 0.00 0.00 0.00 0.00 0.00 0.00 0.00 0.00 0.00 0.00 0.00 0.00 0.00 0.00 0.00 0.00 0.00 0.00 0.00 0.00 0.00 0.00 0.00 0.00 0.00 0.00 0.00 0.00 0.00 0.00 0.00 0.00 0.00 0.00 0.00
0.01 0.01 0.00 0.00 0.00 0.00 0.00 0.00 0.00 0.00 0.00 0.00 0.00 0.00 0.00 0.00 0.00 0.00 0.00 0.00 0.00 0.00 0.00 0.00 0.00 0.00 0.00 0.00 0.00 0.00 0.00 0.00 0.00 0.00 0.00 0.00 0.00 0.00 0.00 0.00 0.00 0.00 0.00 0.00
0.01 0.00 0.00 0.00 0.00 0.00 0.00 0.00 0.00 0.00 0.00 0.00 0.00 0.00 0.00 0.00 0.00 0.00 0.00 0.00 0.00 0.00 0.00 0.00 0.00 0.00 0.00 0.00 0.00 0.00 0.00 0.00 0.00 0.00 0.00 0.00 0.00 0.00 0.00 0.00 0.00 0.00 0.00 0.00
0.02 0.00 0.00 0.01 0.01 0.00 0.00 0.00 0.00 0.00 0.00 0.00 0.00 0.00 0.00 0.00 0.00 0.00 0.00 0.00 0.00 0.00 0.00 0.00 0.00 0.00 0.00 0.00 0.00 0.00 0.00 0.00 0.00 0.00 0.00 0.00 0.00 0.00 0.00 0.00 0.00 0.00 0.00 0.00
0.03 0.01 0.00 0.00 0.00 0.00 0.00 0.00 0.00 0.00 0.00 0.00 0.00 0.00 0.00 0.00 0.00 0.00 0.00 0.00 0.00 0.00 0.00 0.00 0.00 0.00 0.00 0.00 0.00 0.00 0.00 0.00 0.00 0.00 0.00 0.00 0.00 0.00 0.00 0.00 0.00 0.00 0.00 0.00
0.03 0.01 0.00 0.00 0.00 0.00 0.00 0.00 0.01 0.00 0.01 0.01 0.00 0.00 0.00 0.00 0.00 0.00 0.00 0.00 0.00 0.00 0.00 0.00 0.00 0.00 0.00 0.00 0.00 0.00 0.00 0.00 0.00 0.00 0.00 0.00 0.00 0.00 0.00 0.00 0.00 0.00 0.00 0.00
0.05 0.02 0.01 0.00 0.00 0.00 0.01 0.01 0.03 0.03 0.02 0.01 0.00 0.00 0.00 0.00 0.00 0.00 0.00 0.00 0.00 0.00 0.00 0.00 0.00 0.00 0.00 0.00 0.00 0.00 0.00 0.00 0.00 0.00 0.00 0.00 0.00 0.00 0.00 0.00 0.00 0.00 0.00 0.00
0.04 0.03 0.01 0.00 0.00 0.00 0.00 0.01 0.02 0.02 0.01 0.00 0.00 0.00 0.00 0.00 0.00 0.00 0.00 0.00 0.00 0.00 0.00 0.00 0.00 0.00 0.00 0.00 0.00 0.00 0.00 0.00 0.00 0.00 0.00 0.00 0.00 0.00 0.00 0.00 0.00 0.00 0.00 0.00
0.03 0.02 0.00 0.00 0.00 0.00 0.01 0.01 0.00 0.00 0.00 0.00 0.00 0.00 0.00 0.00 0.00 0.00 0.00 0.00 0.00 0.00 0.00 0.00 0.00 0.00 0.00 0.00 0.00 0.00 0.00 0.00 0.00 0.00 0.00 0.00 0.00 0.00 0.00 0.00 0.00 0.00 0.00 0.00
0.04 0.02 0.00 0.00 0.01 0.01 0.01 0.01 0.01 0.02 0.02 0.00 0.00 0.00 0.00 0.00 0.00 0.00 0.00 0.00 0.00 0.00 0.00 0.00 0.00 0.00 0.00 0.00 0.00 0.00 0.00 0.00 0.00 0.00 0.00 0.00 0.00 0.00 0.00 0.00 0.00 0.00 0.00 0.00
0.04 0.03 0.01 0.01 0.01 0.01 0.01 0.01 0.02 0.02 0.01 0.00 0.00 0.00 0.00 0.00 0.00 0.00 0.00 0.00 0.00 0.00 0.00 0.00 0.00 0.00 0.00 0.00 0.00 0.00 0.00 0.00 0.00 0.00 0.00 0.00 0.00 0.00 0.00 0.00 0.00 0.00 0.00 0.00
0.05 0.05 0.02 0.01 0.01 0.01 0.01 0.01 0.01 0.02 0.01 0.00 0.00 0.00 0.00 0.00 0.00 0.00 0.00 0.00 0.00 0.00 0.00 0.00 0.00 0.00 0.00 0.00 0.00 0.00 0.00 0.00 0.00 0.00 0.00 0.00 0.00 0.00 0.00 0.00 0.00 0.00 0.00 0.00
0.11 0.12 0.08 0.05 0.02 0.01 0.01 0.01 0.01 0.01 0.01 0.00 0.00 0.00 0.00 0.00 0.00 0.00 0.00 0.00 0.00 0.00 0.00 0.00 0.00 0.00 0.00 0.00 0.00 0.00 0.00 0.00 0.00 0.00 0.00 0.00 0.00 0.00 0.00 0.00 0.00 0.00 0.00 0.00
0.12 0.13 0.09 0.05 0.02 0.02 0.02 0.01 0.01 0.01 0.01 0.00 0.00 0.00 0.00 0.00 0.00 0.00 0.00 0.00 0.00 0.00 0.00 0.00 0.00 0.00 0.00 0.00 0.00 0.00 0.00 0.00 0.00 0.00 0.00 0.00 0.00 0.00 0.00 0.00 0.00 0.00 0.00 0.00
0.12 0.12 0.05 0.02 0.01 0.01 0.01 0.01 0.01 0.01 0.01 0.01 0.00 0.00 0.00 0.00 0.00 0.00 0.00 0.00 0.00 0.00 0.00 0.00 0.00 0.00 0.00 0.00 0.00 0.00 0.00 0.00 0.00 0.00 0.00 0.00 0.00 0.00 0.00 0.00 0.00 0.00 0.00 0.00
0.16 0.13 0.06 0.02 0.01 0.01 0.01 0.00 0.01 0.01 0.01 0.00 0.00 0.00 0.00 0.00 0.00 0.00 0.00 0.00 0.00 0.00 0.00 0.00 0.00 0.00 0.00 0.00 0.00 0.00 0.00 0.00 0.00 0.00 0.00 0.00 0.00 0.00 0.00 0.00 0.00 0.00 0.00 0.00
0.16 0.15 0.09 0.04 0.02 0.04 0.03 0.01 0.00 0.01 0.01 0.00 0.00 0.00 0.00 0.00 0.00 0.00 0.00 0.00 0.00 0.00 0.00 0.00 0.00 0.00 0.00 0.00 0.00 0.00 0.00 0.00 0.00 0.00 0.00 0.00 0.00 0.00 0.00 0.00 0.00 0.00 0.00 0.00
0.12 0.14 0.12 0.06 0.05 0.10 0.04 0.00 0.00 0.00 0.00 0.00 0.00 0.00 0.00 0.00 0.00 0.00 0.00 0.00 0.00 0.00 0.00 0.00 0.00 0.00 0.00 0.00 0.00 0.00 0.00 0.00 0.00 0.00 0.00 0.00 0.00 0.00 0.00 0.00 0.00 0.00 0.00 0.00
0.05 0.09 0.13 0.11 0.08 0.05 0.01 0.00 0.00 0.00 0.00 0.00 0.00 0.00 0.00 0.00 0.00 0.00 0.00 0.00 0.00 0.00 0.00 0.00 0.00 0.00 0.00 0.00 0.00 0.00 0.00 0.00 0.00 0.00 0.00 0.00 0.00 0.00 0.00 0.00 0.00 0.00 0.00 0.00
0.04 0.06 0.11 0.10 0.08 0.03 0.00 0.00 0.00 0.00 0.00 0.00 0.00 0.00 0.00 0.00 0.00 0.00 0.00 0.00 0.00 0.00 0.00 0.00 0.00 0.00 0.00 0.00 0.00 0.00 0.00 0.00 0.00 0.00 0.00 0.00 0.00 0.00 0.00 0.00 0.00 0.00 0.00 0.00
0.09 0.12 0.12 0.08 0.05 0.01 0.00 0.00 0.00 0.00 0.00 0.00 0.00 0.00 0.00 0.00 0.00 0.00 0.00 0.00 0.00 0.00 0.00 0.00 0.00 0.00 0.00 0.00 0.00 0.00 0.00 0.00 0.00 0.00 0.00 0.00 0.00 0.00 0.00 0.00 0.00 0.00 0.00 0.00
0.09 0.12 0.10 0.06 0.04 0.01 0.00 0.00 0.00 0.00 0.00 0.00 0.00 0.00 0.00 0.00 0.00 0.00 0.00 0.00 0.00 0.00 0.00 0.00 0.00 0.00 0.00 0.00 0.00 0.00 0.00 0.00 0.00 0.00 0.00 0.00 0.00 0.00 0.00 0.00 0.00 0.00 0.00 0.00
0.05 0.06 0.05 0.04 0.02 0.00 0.00 0.01 0.01 0.01 0.00 0.00 0.00 0.00 0.00 0.00 0.00 0.00 0.00 0.00 0.00 0.00 0.00 0.00 0.00 0.00 0.00 0.00 0.00 0.00 0.00 0.00 0.00 0.00 0.00 0.00 0.00 0.00 0.00 0.00 0.00 0.00 0.00 0.00
0.02 0.03 0.04 0.03 0.01 0.01 0.01 0.01 0.01 0.01 0.00 0.00 0.00 0.00 0.00 0.00 0.00 0.00 0.00 0.00 0.00 0.00 0.00 0.00 0.00 0.00 0.00 0.00 0.00 0.00 0.00 0.00 0.00 0.00 0.00 0.00 0.00 0.00 0.00 0.00 0.00 0.00 0.00 0.00
0.03 0.03 0.04 0.03 0.01 0.01 0.01 0.01 0.00 0.00 0.00 0.00 0.00 0.00 0.00 0.00 0.00 0.00 0.00 0.00 0.00 0.00 0.00 0.00 0.00 0.00 0.00 0.00 0.00 0.00 0.00 0.00 0.00 0.00 0.00 0.00 0.00 0.00 0.00 0.00 0.00 0.00 0.00 0.00
0.02 0.02 0.02 0.02 0.00 0.00 0.01 0.00 0.00 0.00 0.00 0.00 0.00 0.00 0.00 0.00 0.00 0.00 0.00 0.00 0.00 0.00 0.00 0.00 0.00 0.00 0.00 0.00 0.00 0.00 0.00 0.00 0.00 0.00 0.00 0.00 0.00 0.00 0.00 0.00 0.00 0.00 0.00 0.00
MSLP
1011.14 1011.43 1011.59 1011.65 1011.67 1011.71 1011.80 1011.95 1012.14 1012.33 1012.45 1012.47 1012.36 1012.09 1011.71 1011.23 1010.71 1010.20 1009.74 1009.35 1009.04 1008.80 1008.63 1008.52 1008.48 1008.51 1008.64 1008.89 1009.29 1009.85 1010.55 1011.39 1012.31 1013.27 1014.22 1015.11 1015.90 1016.58 1017.14 1017.59 1017.96 1018.29 1018.59 1018.91
1010.82 1011.06 1011.15 1011.14 1011.12 1011.15 1011.28 1011.51 1011.80 1012.09 1012.30 1012.37 1012.25 1011.93 1011.43 1010.81 1010.15 1009.51 1008.94 1008.48 1008.14 1007.91 1007.77 1007.70 1007.68 1007.73 1007.85 1008.08 1008.45 1008.99 1009.69 1010.55 1011.51 1012.53 1013.55 1014.51 1015.37 1016.10 1016.70 1017.18 1017.58 1017.93 1018.28 1018.65
1010.20 1010.43 1010.50 1010.49 1010.50 1010.60 1010.82 1011.16 1011.57 1011.97 1012.24 1012.33 1012.16 1011.74 1011.11 1010.33 1009.50 1008.72 1008.04 1007.53 1007.18 1006.98 1006.89 1006.88 1006.92 1007.00 1007.14 1007.37 1007.73 1008.24 1008.94 1009.80 1010.78 1011.84 1012.91 1013.93 1014.84 1015.62 1016.25 1016.78 1017.22 1017.62 1018.01 1018.43
1009.29 1009.53 1009.64 1009.71 1009.82 1010.05 1010.43 1010.93 1011.48 1011.97 1012.30 1012.37 1012.13 1011.59 1010.78 1009.82 1008.82 1007.89 1007.12 1006.56 1006.21 1006.06 1006.05 1006.12 1006.24 1006.38 1006.56 1006.80 1007.15 1007.65 1008.33 1009.17 1010.15 1011.22 1012.31 1013.36 1014.30 1015.12 1015.80 1016.37 1016.85 1017.30 1017.75 1018.22
1008.16 1008.42 1008.61 1008.79 1009.07 1009.49 1010.07 1010.76 1011.47 1012.07 1012.43 1012.48 1012.14 1011.45 1010.48 1009.33 1008.15 1007.09 1006.23 1005.64 1005.32 1005.23 1005.31 1005.49 1005.71 1005.94 1006.17 1006.43 1006.78 1007.25 1007.88 1008.69 1009.64 1010.68 1011.76 1012.81 1013.77 1014.62 1015.33 1015.93 1016.46 1016.96 1017.46 1017.98
1006.92 1007.19 1007.45 1007.77 1008.23 1008.86 1009.66 1010.56 1011.43 1012.13 1012.53 1012.54 1012.12 1011.29 1010.15 1008.84 1007.52 1006.34 1005.43 1004.83 1004.56 1004.55 1004.75 1005.05 1005.38 1005.69 1005.98 1006.27 1006.61 1007.04 1007.62 1008.36 1009.25 1010.24 1011.27 1012.30 1013.25 1014.09 1014.83 1015.46 1016.03 1016.57 1017.12 1017.69
1005.71 1005.95 1006.24 1006.67 1007.29 1008.12 1009.12 1010.20 1011.22 1012.02 1012.46 1012.45 1011.95 1011.02 1009.75 1008.32 1006.91 1005.67 1004.74 1004.17 1003.97 1004.07 1004.38 1004.81 1005.25 1005.65 1006.00 1006.31 1006.63 1007.01 1007.52 1008.18 1008.97 1009.88 1010.84 1011.81 1012.73 1013.56 1014.30 1014.95 1015.56 1016.14 1016.73 1017.35
1004.65 1004.78 1005.06 1005.53 1006.26 1007.23 1008.38 1009.60 1010.73 1011.60 1012.07 1012.06 1011.53 1010.54 1009.22 1007.74 1006.30 1005.07 1004.18 1003.68 1003.56 1003.77 1004.21 1004.76 1005.30 1005.78 1006.17 1006.49 1006.79 1007.12 1007.55 1008.10 1008.79 1009.59 1010.47 1011.36 1012.23 1013.04 1013.76 1014.43 1015.05 1015.66 1016.29 1016.95
1003.83 1003.80 1003.97 1004.41 1005.15 1006.17 1007.39 1008.69 1009.88 1010.80 1011.30 1011.30 1010.79 1009.82 1008.52 1007.08 1005.69 1004.53 1003.73 1003.33 1003.33 1003.66 1004.21 1004.85 1005.48 1006.02 1006.45 1006.76 1007.03 1007.29 1007.63 1008.09 1008.66 1009.36 1010.14 1010.95 1011.76 1012.53 1013.24 1013.90 1014.54 1015.17 1015.82 1016.51
1003.30 1003.05 1003.05 1003.37 1004.03 1005.01 1006.21 1007.49 1008.68 1009.61 1010.14 1010.19 1009.73 1008.84 1007.64 1006.32 1005.06 1004.04 1003.37 1003.11 1003.22 1003.66 1004.30 1005.02 1005.70 1006.28 1006.71 1007.02 1007.25 1007.46 1007.72 1008.08 1008.56 1009.16 1009.85 1010.59 1011.34 1012.07 1012.76 1013.41 1014.05 1014.69 1015.36 1016.06
1003.06 1002.57 1002.35 1002.48 1002.97 1003.81 1004.89 1006.08 1007.22 1008.13 1008.67 1008.77 1008.41 1007.66 1006.63 1005.50 1004.44 1003.60 1003.09 1002.96 1003.19 1003.71 1004.40 1005.16 1005.86 1006.44 1006.88 1007.17 1007.37 1007.54 1007.74 1008.04 1008.45 1008.97 1009.59 1010.27 1010.97 1011.66 1012.33 1012.98 1013.61 1014.24 1014.90 1015.60
1003.06 1002.33 1001.87 1001.76 1002.04 1002.66 1003.56 1004.60 1005.62 1006.48 1007.02 1007.19 1006.96 1006.38 1005.57 1004.66 1003.82 1003.19 1002.85 1002.85 1003.16 1003.72 1004.43 1005.18 1005.87 1006.44 1006.86 1007.14 1007.33 1007.48 1007.66 1007.92 1008.29 1008.77 1009.34 1009.98 1010.65 1011.32 1011.97 1012.59 1013.21 1013.84 1014.48 1015.15
1003.21 1002.27 1001.58 1001.23 1001.25 1001.63 1002.30 1003.15 1004.03 1004.80 1005.34 1005.57 1005.47 1005.09 1004.50 1003.84 1003.23 1002.79 1002.60 1002.70 1003.05 1003.62 1004.31 1005.02 1005.67 1006.21 1006.61 1006.89 1007.09 1007.25 1007.45 1007.71 1008.08 1008.54 1009.10 1009.72 1010.37 1011.02 1011.65 1012.27 1012.87 1013.47 1014.09 1014.73
1003.41 1002.30 1001.42 1000.84 1000.62 1000.75 1001.17 1001.81 1002.53 1003.20 1003.71 1004.00 1004.04 1003.84 1003.47 1003.04 1002.64 1002.37 1002.31 1002.46 1002.83 1003.36 1003.99 1004.63 1005.23 1005.73 1006.13 1006.42 1006.65 1006.86 1007.10 1007.41 1007.80 1008.28 1008.85 1009.46 1010.10 1010.74 1011.37 1011.97 1012.56 1013.13 1013.72 1014.33
1003.56 1002.33 1001.29 1000.52 1000.08 999.97 1000.16 1000.58 1001.13 1001.70 1002.19 1002.52 1002.67 1002.64 1002.48 1002.24 1002.03 1001.90 1001.92 1002.10 1002.44 1002.91 1003.46 1004.03 1004.57 1005.04 1005.44 1005.77 1006.06 1006.34 1006.65 1007.03 1007.47 1007.99 1008.57 1009.20 1009.84 1010.48 1011.09 1011.69 1012.26 1012.82 1013.38 1013.94
1003.59 1002.28 1001.12 1000.19 999.55 999.23 999.20 999.43 999.82 1000.29 1000.74 1001.11 1001.35 1001.46 1001.47 1001.40 1001.33 1001.31 1001.39 1001.58 1001.88 1002.28 1002.75 1003.25 1003.74 1004.20 1004.62 1005.00 1005.37 1005.75 1006.15 1006.61 1007.12 1007.68 1008.29 1008.92 1009.57 1010.20 1010.81 1011.40 1011.97 1012.52 1013.05 1013.59
1003.45 1002.08 1000.82 999.76 998.95 998.45 998.24 998.29 998.54 998.90 999.32 999.70 1000.02 1000.25 1000.39 1000.47 1000.52 1000.59 1000.71 1000.90 1001.17 1001.51 1001.92 1002.36 1002.83 1003.29 1003.75 1004.21 1004.67 1005.15 1005.66 1006.19 1006.77 1007.37 1008.00 1008.65 1009.29 1009.91 1010.52 1011.11 1011.67 1012.22 1012.75 1013.27
1003.14 1001.70 1000.36 999.18 998.24 997.57 997.20 997.09 997.21 997.49 997.86 998.25 998.63 998.95 999.21 999.41 999.57 999.72 999.89 1000.09 1000.35 1000.67 1001.05 1001.47 1001.94 1002.44 1002.96 1003.50 1004.06 1004.63 1005.23 1005.84 1006.46 1007.10 1007.74 1008.38 1009.01 1009.63 1010.24 1010.83 1011.40 1011.95 1012.48 1013.00
1002.68 1001.18 999.75 998.47 997.41 996.61 996.09 995.85 995.85 996.03 996.35 996.75 997.16 997.56 997.92 998.23 998.50 998.75 998.98 999.23 999.52 999.85 1000.24 1000.68 1001.18 1001.73 1002.32 1002.94 1003.59 1004.25 1004.92 1005.58 1006.25 1006.90 1007.54 1008.17 1008.78 1009.39 1009.99 1010.58 1011.16 1011.72 1012.26 1012.78
1002.15 1000.59 999.08 997.71 996.54 995.62 994.97 994.60 994.49 994.59 994.85 995.23 995.67 996.14 996.59 997.01 997.39 997.74 998.08 998.41 998.76 999.14 999.58 1000.07 1000.62 1001.23 1001.89 1002.59 1003.31 1004.04 1004.76 1005.46 1006.14 1006.79 1007.42 1008.03 1008.63 1009.22 1009.81 1010.40 1010.99 1011.56 1012.11 1012.63
1001.61 1000.00 998.44 996.99 995.73 994.71 993.94 993.46 993.24 993.25 993.45 993.80 994.26 994.77 995.30 995.82 996.33 996.80 997.26 997.70 998.15 998.63 999.14 999.70 1000.32 1001.00 1001.72 1002.47 1003.24 1004.01 1004.76 1005.48 1006.16 1006.80 1007.41 1008.00 1008.58 1009.16 1009.74 1010.33 1010.91 1011.49 1012.04 1012.56
1001.13 999.50 997.91 996.42 995.10 993.99 993.13 992.54 992.21 992.13 992.26 992.57 993.02 993.57 994.16 994.79 995.41 996.02 996.61 997.19 997.76 998.35 998.95 999.60 1000.29 1001.01 1001.78 1002.57 1003.37 1004.15 1004.91 1005.63 1006.30 1006.94 1007.53 1008.10 1008.67 1009.23 1009.80 1010.37 1010.95 1011.52 1012.06 1012.55
1000.74 999.13 997.55 996.06 994.71 993.55 992.62 991.94 991.52 991.34 991.39 991.65 992.07 992.62 993.27 993.98 994.71 995.45 996.18 996.90 997.60 998.30 999.01 999.73 1000.48 1001.25 1002.04 1002.84 1003.64 1004.43 1005.18 1005.89 1006.56 1007.18 1007.77 1008.33 1008.89 1009.44 1009.99 1010.55 1011.11 1011.65 1012.15 1012.61
1000.41 998.87 997.35 995.90 994.57 993.40 992.43 991.68 991.17 990.91 990.88 991.06 991.45 992.00 992.67 993.44 994.27 995.12 995.98 996.83 997.66 998.47 999.27 1000.05 1000.85 1001.64 1002.44 1003.24 1004.02 1004.80 1005.54 1006.24 1006.90 1007.52 1008.11 1008.68 1009.22 1009.77 1010.30 1010.84 1011.36 1011.85 1012.31 1012.71
1000.05 998.64 997.23 995.87 994.61 993.47 992.49 991.71 991.14 990.80 990.69 990.81 991.15 991.67 992.35 993.17 994.07 995.02 995.99 996.95 997.89 998.79 999.66 1000.50 1001.32 1002.12 1002.91 1003.69 1004.46 1005.21 1005.93 1006.63 1007.29 1007.92 1008.52 1009.09 1009.65 1010.19 1010.71 1011.21 1011.69 1012.13 1012.52 1012.85
999.54 998.29 997.04 995.82 994.67 993.61 992.68 991.90 991.31 990.92 990.75 990.81 991.10 991.59 992.27 993.11 994.06 995.09 996.14 997.20 998.22 999.20 1000.13 1001.01 1001.85 1002.64 1003.41 1004.17 1004.91 1005.63 1006.34 1007.04 1007.71 1008.35 1008.97 1009.56 1010.13 1010.66 1011.16 1011.63 1012.06 1012.44 1012.77 1013.03
Thickness
5622 5617 5624 5637 5642 5645 5645 5645 5648 5661 5676 5672 5671 5679 5693 5702 5703 5707 5711 5714 5718 5726 5734 5737 5737 5735 5733 5730 5726 5721 5714 5707 5699 5691 5684 5678 5672 5666 5661 5656 5650 5645 5639 5634
5604 5613 5635 5638 5636 5636 5636 5636 5642 5654 5668 5666 5665 5672 5687 5697 5702 5710 5714 5716 5719 5724 5728 5732 5732 5730 5729 5727 5724 5718 5712 5705 5699 5692 5685 5677 5669 5662 5656 5651 5645 5639 5634 5629
5606 5625 5632 5628 5627 5626 5629 5632 5638 5644 5655 5660 5659 5662 5678 5694 5702 5709 5714 5718 5721 5723 5725 5727 5726 5725 5723 5721 5719 5716 5709 5703 5696 5688 5679 5669 5660 5653 5648 5643 5638 5634 5629 5623
5603 5618 5622 5620 5622 5625 5625 5640 5639 5639 5635 5633 5644 5637 5665 5681 5692 5703 5709 5713 5717 5721 5722 5722 5722 5720 5718 5717 5714 5711 5704 5698 5691 5683 5675 5667 5659 5652 5646 5640 5633 5628 5623 5618
5598 5611 5614 5616 5627 5629 5630 5639 5634 5633 5627 5623 5630 5628 5654 5673 5682 5696 5704 5709 5713 5716 5717 5717 5717 5715 5713 5709 5706 5702 5697 5691 5685 5678 5672 5664 5656 5648 5640 5634 5627 5621 5616 5611
5598 5609 5615 5622 5629 5629 5628 5624 5619 5612 5609 5606 5623 5619 5641 5664 5683 5694 5700 5704 5707 5709 5709 5710 5709 5707 5703 5700 5697 5693 5689 5684 5678 5672 5666 5659 5651 5642 5634 5627 5621 5615 5609 5604
5584 5596 5609 5618 5613 5615 5616 5605 5593 5590 5587 5600 5621 5620 5643 5674 5688 5693 5697 5699 5700 5700 5699 5699 5698 5696 5693 5690 5688 5685 5681 5676 5671 5665 5660 5654 5647 5639 5632 5625 5617 5610 5603 5597
5573 5583 5601 5611 5615 5610 5612 5611 5595 5589 5588 5601 5615 5618 5651 5678 5688 5691 5694 5694 5692 5691 5690 5691 5690 5687 5685 5682 5679 5677 5673 5669 5664 5659 5653 5647 5641 5634 5627 5621 5614 5607 5601 5595
5576 5586 5606 5614 5622 5618 5605 5606 5611 5598 5594 5596 5605 5625 5650 5672 5677 5680 5681 5682 5682 5683 5683 5682 5681 5678 5676 5674 5671 5669 5666 5661 5656 5652 5646 5640 5634 5628 5622 5615 5609 5603 5596 5589
5580 5577 5595 5608 5611 5613 5614 5609 5597 5590 5582 5585 5601 5617 5638 5659 5664 5670 5671 5673 5675 5676 5675 5674 5672 5670 5668 5666 5663 5660 5658 5654 5649 5644 5639 5634 5628 5623 5617 5610 5603 5597 5590 5584
5576 5574 5582 5593 5597 5601 5601 5600 5601 5593 5587 5586 5589 5616 5653 5662 5666 5666 5667 5669 5670 5669 5668 5667 5665 5662 5660 5657 5654 5651 5648 5645 5641 5637 5632 5627 5621 5616 5610 5604 5598 5591 5585 5578
5566 5568 5570 5584 5602 5612 5608 5606 5601 5592 5587 5591 5592 5619 5660 5662 5666 5666 5664 5665 5665 5665 5663 5661 5658 5654 5651 5649 5646 5644 5641 5638 5634 5630 5625 5620 5614 5609 5603 5598 5592 5585 5579 5572
5554 5557 5559 5564 5579 5591 5597 5600 5605 5603 5592 5585 5590 5619 5654 5656 5658 5661 5661 5660 5659 5659 5656 5653 5650 5647 5645 5643 5640 5637 5635 5631 5627 5623 5618 5612 5607 5602 5597 5591 5585 5579 5572 5565
5550 5548 5560 5571 5585 5589 5590 5596 5603 5598 5593 5591 5602 5623 5642 5647 5649 5652 5653 5654 5653 5652 5650 5647 5644 5641 5640 5637 5635 5631 5628 5625 5621 5616 5610 5605 5600 5595 5590 5584 5578 5572 5565 5558
5539 5544 5556 5569 5581 5589 5592 5596 5599 5603 5608 5604 5614 5621 5635 5641 5644 5648 5648 5647 5645 5644 5644 5642 5640 5637 5634 5631 5629 5626 5622 5618 5614 5609 5604 5599 5593 5588 5582 5576 5570 5564 5557 5551
5527 5538 5549 5559 5572 5581 5585 5593 5598 5605 5610 5609 5613 5620 5637 5641 5639 5639 5639 5640 5640 5641 5641 5640 5638 5634 5631 5628 5624 5621 5616 5612 5608 5603 5597 5591 5585 5579 5573 5567 5561 5555 5548 5542
5518 5528 5539 5549 5560 5565 5572 5597 5602 5606 5612 5614 5615 5633 5632 5631 5633 5636 5637 5637 5640 5641 5640 5637 5635 5633 5629 5625 5621 5616 5611 5606 5600 5595 5589 5583 5577 5571 5565 5559 5552 5546 5539 5532
5513 5521 5529 5540 5547 5551 5591 5607 5609 5609 5616 5621 5626 5632 5631 5635 5637 5639 5640 5639 5639 5639 5637 5634 5631 5627 5624 5620 5615 5610 5604 5598 5592 5586 5580 5575 5569 5563 5556 5550 5544 5537 5530 5523
5518 5519 5521 5531 5543 5559 5583 5599 5605 5606 5612 5624 5626 5629 5630 5630 5628 5631 5638 5639 5641 5639 5636 5633 5628 5624 5618 5613 5608 5601 5595 5589 5584 5578 5573 5567 5561 5554 5547 5541 5534 5527 5520 5514
5518 5521 5520 5524 5537 5555 5591 5604 5609 5604 5604 5628 5627 5628 5626 5620 5616 5634 5637 5635 5634 5632 5629 5625 5619 5614 5609 5604 5600 5594 5587 5581 5577 5572 5566 5559 5553 5547 5539 5533 5525 5518 5512 5505
5511 5516 5519 5523 5536 5561 5590 5601 5601 5592 5616 5633 5631 5632 5627 5626 5638 5640 5632 5629 5627 5624 5620 5616 5611 5606 5601 5596 5592 5585 5578 5574 5569 5563 5556 5550 5544 5538 5531 5523 5516 5509 5502 5494
5510 5516 5521 5526 5535 5561 5590 5591 5600 5612 5623 5628 5630 5631 5630 5632 5632 5627 5625 5621 5617 5613 5609 5605 5601 5594 5590 5587 5583 5576 5569 5564 5558 5553 5546 5539 5533 5527 5520 5513 5505 5498 5491 5483
5510 5523 5531 5542 5561 5580 5587 5595 5605 5609 5615 5621 5624 5627 5626 5623 5621 5619 5615 5612 5608 5605 5600 5596 5591 5584 5578 5576 5574 5567 5559 5554 5549 5542 5535 5528 5522 5515 5509 5502 5494 5487 5479 5472
5507 5519 5524 5536 5557 5574 5583 5590 5599 5604 5611 5616 5618 5620 5621 5619 5616 5611 5608 5603 5599 5594 5590 5586 5581 5575 5568 5565 5562 5557 5550 5545 5539 5531 5523 5517 5510 5503 5497 5491 5484 5477 5469 5461
5501 5509 5517 5531 5552 5566 5579 5585 5593 5599 5604 5607 5610 5612 5615 5614 5609 5605 5601 5596 5592 5586 5580 5578 5574 5568 5560 5555 5550 5546 5541 5535 5527 5519 5512 5505 5499 5492 5485 5479 5473 5467 5460 5453
5502 5511 5520 5535 5552 5560 5575 5584 5588 5591 5595 5598 5600 5601 5604 5607 5604 5599 5594 5589 5584 5578 5573 5568 5562 5557 5550 5545 5539 5534 5530 5525 5518 5508 5501 5494 5487 5480 5474 5467 5460 5456 5450 5444